This is the latest recevied weather packets stored in our database for station/object KE0FIN. If no packets are shown the sender has not sent any weather packets the latest 10 day(s).
| Time | Temp. | Humidity | Pressure | Rain* | Wind** | Luminosity | Snow |
|---|---|---|---|---|---|---|---|
| 1777839598 | 29.44° C | 20% | 1062 hPa | 0 mm | - | 255 W/m² | - |
| 1777839296 | 29.44° C | 20% | 1062.1 hPa | 0 mm | - | 324 W/m² | - |
| 1777838993 | 30° C | 19% | 1062 hPa | 0 mm | - | 409 W/m² | - |
| 1777838689 | 30° C | 19% | 1062.2 hPa | 0 mm | - | 537 W/m² | - |
| 1777838386 | 30° C | 19% | 1062.3 hPa | 0 mm | - | 485 W/m² | - |
| 1777838083 | 30° C | 19% | 1062.1 hPa | 0 mm | - | 508 W/m² | - |
| 1777837779 | 30° C | 18% | 1062.2 hPa | 0 mm | - | 568 W/m² | - |
| 1777837477 | 30.56° C | 18% | 1062.3 hPa | 0 mm | - | 622 W/m² | - |
| 1777837172 | 30.56° C | 17% | 1062.2 hPa | 0 mm | - | 691 W/m² | - |
| 1777836867 | 30° C | 19% | 1062.3 hPa | 0 mm | - | 672 W/m² | - |
| 1777836563 | 30.56° C | 20% | 1062.2 hPa | 0 mm | - | 698 W/m² | - |
| 1777836260 | 30.56° C | 20% | 1062.4 hPa | 0 mm | - | 692 W/m² | - |
| 1777835956 | 30.56° C | 21% | 1062.4 hPa | 0 mm | - | 689 W/m² | - |
| 1777835654 | 30° C | 19% | 1062.5 hPa | 0 mm | - | 705 W/m² | - |
| 1777835349 | 30° C | 18% | 1062.5 hPa | 0 mm | - | 703 W/m² | - |
| 1777835047 | 30° C | 19% | 1062.8 hPa | 0 mm | - | 706 W/m² | - |
| 1777834743 | 30° C | 20% | 1062.7 hPa | 0 mm | - | 704 W/m² | - |
| 1777834440 | 29.44° C | 20% | 1062.8 hPa | 0 mm | - | 710 W/m² | - |
| 1777834139 | 29.44° C | 20% | 1063 hPa | 0 mm | - | 679 W/m² | - |
| 1777833836 | 29.44° C | 19% | 1063 hPa | 0 mm | - | 671 W/m² | - |
| 1777833532 | 28.89° C | 21% | 1063 hPa | 0 mm | - | 345 W/m² | - |
| 1777833229 | 29.44° C | 20% | 1063 hPa | 0 mm | - | 696 W/m² | - |
| 1777832926 | 28.89° C | 19% | 1063.1 hPa | 0 mm | - | 196 W/m² | - |
| 1777832625 | 28.89° C | 21% | 1063 hPa | 0 mm | - | 94 W/m² | - |
| 1777832322 | 28.89° C | 21% | 1063.2 hPa | 0 mm | - | 85 W/m² | - |
* Rain latest hour (hover to see other rain measurements)
** Current wind speed in m/s (hover to see current wind gust speed)